IW7DVM-13 Weather Reports


time (UTC)temp
C
wind
direction
speed
KPH
gust
KPH
rain 1hr
cm
rain 24hr
cm
rain mn
cm
humidity
%
barometer
mb
20260503230003 14 22 0.0 1.6 0.00 0.00 0.00 71 1013.5
20260503225503 14 0 0.0 0.0 0.00 0.00 0.00 71 1013.5
20260503225003 14 22 0.0 1.6 0.00 0.00 0.00 71 1013.4
20260503224503 14 22 0.0 1.6 0.00 0.00 0.00 71 1013.4
20260503224003 14 0 0.0 0.0 0.00 0.00 0.00 71 1013.4
20260503223503 14 0 0.0 0.0 0.00 0.00 0.00 71 1013.6
20260503223003 15 0 0.0 0.0 0.00 0.00 0.00 70 1013.6
20260503222503 15 0 0.0 0.0 0.00 0.00 0.00 70 1013.6
20260503222003 15 0 0.0 0.0 0.00 0.00 0.00 70 1013.6
20260503221503 15 0 0.0 0.0 0.00 0.00 0.00 70 1013.4
20260503221003 15 22 0.0 1.6 0.00 0.00 0.00 70 1013.4
20260503220503 15 0 0.0 0.0 0.00 0.00 0.00 70 1013.3
20260503220003 15 0 0.0 0.0 0.00 0.00 0.00 70 1013.4
20260503215503 15 22 0.0 1.6 0.00 0.00 0.00 70 1013.4
20260503215003 15 0 0.0 0.0 0.00 0.00 0.00 70 1013.4
20260503214503 15 0 0.0 0.0 0.00 0.00 0.00 70 1013.4
20260503214003 15 0 0.0 0.0 0.00 0.00 0.00 70 1013.2
20260503213503 15 0 0.0 0.0 0.00 0.00 0.00 70 1013.2
20260503213003 15 22 0.0 1.6 0.00 0.00 0.00 70 1013.3
20260503212503 15 22 0.0 3.2 0.00 0.00 0.00 70 1013.2
20260503212003 16 22 1.6 3.2 0.00 0.00 0.00 70 1013.3
20260503211503 16 22 1.6 6.4 0.00 0.00 0.00 70 1013.3
20260503211003 16 7 1.6 6.4 0.00 0.00 0.00 70 1013.3
20260503210503 17 45 0.0 1.6 0.00 0.00 0.00 70 1013.3
20260503210003 17 195 1.6 4.8 0.00 0.00 0.00 70 1013.2
20260503205503 17 189 1.6 6.4 0.00 0.00 0.00 70 1013.1
20260503205003 17 215 0.0 6.4 0.00 0.00 0.00 70 1013.1
20260503204503 16 227 0.0 6.4 0.00 0.00 0.00 69 1013.0
20260503204003 16 45 0.0 6.4 0.00 0.00 0.00 69 1013.2
20260503203503 16 0 0.0 0.0 0.00 0.00 0.00 69 1013.1
20260503203003 16 0 0.0 0.0 0.00 0.00 0.00 69 1013.0
20260503202503 16 0 0.0 0.0 0.00 0.00 0.00 69 1013.1
20260503202003 16 0 0.0 0.0 0.00 0.00 0.00 69 1013.1
20260503201503 17 135 0.0 1.6 0.00 0.00 0.00 69 1013.2
20260503201003 17 0 0.0 0.0 0.00 0.00 0.00 69 1013.1
20260503200503 17 0 0.0 0.0 0.00 0.00 0.00 69 1013.2
20260503200003 17 191 0.0 3.2 0.00 0.00 0.00 69 1013.2
20260503195503 17 0 0.0 0.0 0.00 0.00 0.00 69 1013.2
20260503195003 17 157 0.0 1.6 0.00 0.00 0.00 69 1013.1
20260503194503 17 188 0.0 3.2 0.00 0.00 0.00 69 1013.1
20260503194003 17 181 0.0 4.8 0.00 0.00 0.00 69 1012.9
20260503193503 17 199 0.0 4.8 0.00 0.00 0.00 68 1013.0
20260503193003 17 188 1.6 8.0 0.00 0.00 0.00 68 1012.9
20260503192503 17 192 1.6 9.7 0.00 0.00 0.00 68 1012.8
20260503192003 17 202 1.6 6.4 0.00 0.00 0.00 68 1012.9
20260503191503 17 203 1.6 8.0 0.00 0.00 0.00 67 1012.9
20260503191003 17 220 1.6 6.4 0.00 0.00 0.00 67 1012.6
20260503190503 17 182 1.6 8.0 0.00 0.00 0.00 67 1012.6
20260503190003 17 200 1.6 6.4 0.00 0.00 0.00 67 1012.6
20260503185503 17 205 1.6 6.4 0.00 0.00 0.00 66 1012.5
20260503185003 17 214 0.0 6.4 0.00 0.00 0.00 66 1012.6
20260503184503 17 210 1.6 8.0 0.00 0.00 0.00 66 1012.6
20260503184003 17 189 0.0 4.8 0.00 0.00 0.00 66 1012.5
20260503183503 17 192 3.2 14.5 0.00 0.00 0.00 66 1012.3
20260503183003 17 204 6.4 14.5 0.00 0.00 0.00 66 1012.4
20260503182503 18 186 1.6 8.0 0.00 0.00 0.00 65 1012.2
20260503182003 18 200 1.6 9.7 0.00 0.00 0.00 64 1012.3
20260503181504 18 190 1.6 6.4 0.00 0.00 0.00 63 1012.3
20260503181003 18 195 4.8 12.9 0.00 0.00 0.00 63 1012.3
20260503180503 18 199 3.2 14.5 0.00 0.00 0.00 61 1012.2
20260503180003 18 195 4.8 11.3 0.00 0.00 0.00 59 1012.1
20260503175503 19 207 4.8 19.3 0.00 0.00 0.00 56 1012.0
20260503175003 20 190 3.2 12.9 0.00 0.00 0.00 47 1011.9
20260503174503 21 30 3.2 6.4 0.00 0.00 0.00 40 1011.8
20260503174003 21 14 3.2 6.4 0.00 0.00 0.00 39 1011.9
20260503173503 22 13 4.8 9.7 0.00 0.00 0.00 38 1011.8
20260503173003 22 7 4.8 11.3 0.00 0.00 0.00 38 1011.8
20260503172504 22 16 4.8 12.9 0.00 0.00 0.00 37 1011.7
20260503172003 22 16 6.4 14.5 0.00 0.00 0.00 37 1011.8
20260503171503 23 18 4.8 11.3 0.00 0.00 0.00 36 1011.8
20260503171003 23 17 6.4 14.5 0.00 0.00 0.00 35 1011.7
20260503170503 23 10 6.4 14.5 0.00 0.00 0.00 35 1011.7
20260503151003 25 14 14.5 25.7 0.00 0.00 0.00 34 1011.6
20260503150503 25 8 16.1 27.4 0.00 0.00 0.00 34 1011.7
20260503131003 25 360 12.9 25.7 0.00 0.00 0.00 36 1012.1
20260503130503 25 10 16.1 30.6 0.00 0.00 0.00 35 1012.1
20260503110503 24 18 19.3 32.2 0.00 0.00 0.00 34 1012.2
20260503090503 23 316 9.7 22.5 0.00 0.00 0.00 33 1012.6
20260503081503 22 304 4.8 14.5 0.00 0.00 0.00 41 1012.8
20260503081003 21 332 6.4 19.3 0.00 0.00 0.00 42 1012.7
20260503080503 21 324 4.8 20.9 0.00 0.00 0.00 46 1012.9
20260503072503 19 237 6.4 22.5 0.00 0.00 0.00 51 1013.0
20260503072003 18 251 4.8 16.1 0.00 0.00 0.00 50 1012.9
20260503071503 18 245 4.8 16.1 0.00 0.00 0.00 50 1013.0
20260503071003 18 247 6.4 17.7 0.00 0.00 0.00 50 1013.0
20260503070503 18 263 6.4 17.7 0.00 0.00 0.00 49 1013.0
20260503055003 15 271 4.8 16.1 0.00 0.00 0.00 53 1013.1
20260503054503 15 280 6.4 16.1 0.00 0.00 0.00 53 1013.1
20260503053503 15 272 3.2 11.3 0.00 0.00 0.00 54 1013.0
20260503053003 15 269 6.4 17.7 0.00 0.00 0.00 54 1013.0
20260503052503 15 268 4.8 9.7 0.00 0.00 0.00 55 1013.0
20260503052003 15 276 4.8 11.3 0.00 0.00 0.00 55 1012.8
20260503051503 15 270 4.8 12.9 0.00 0.00 0.00 55 1012.9
20260503051003 15 270 4.8 11.3 0.00 0.00 0.00 55 1012.9
20260503050503 14 273 6.4 16.1 0.00 0.00 0.00 55 1012.8
20260503050003 14 276 6.4 17.7 0.00 0.00 0.00 56 1012.8
20260503045503 14 268 6.4 17.7 0.00 0.00 0.00 56 1012.8
20260503045003 14 274 4.8 12.9 0.00 0.00 0.00 56 1012.9
20260503044503 13 271 4.8 17.7 0.00 0.00 0.00 56 1013.0
20260503044003 13 272 3.2 8.0 0.00 0.00 0.00 56 1013.0
20260503043503 13 294 3.2 8.0 0.00 0.00 0.00 56 1013.0
20260503043003 13 274 3.2 16.1 0.00 0.00 0.00 56 1012.9
20260503042503 13 281 3.2 11.3 0.00 0.00 0.00 56 1012.9
20260503042003 13 283 1.6 9.7 0.00 0.00 0.00 56 1012.9
20260503041503 13 274 3.2 8.0 0.00 0.00 0.00 56 1012.9
20260503041003 13 272 1.6 8.0 0.00 0.00 0.00 56 1012.9
20260503040503 13 271 4.8 14.5 0.00 0.00 0.00 57 1012.9
20260503040003 13 284 3.2 9.7 0.00 0.00 0.00 57 1012.9
20260503035503 13 273 3.2 8.0 0.00 0.00 0.00 57 1012.9
20260503035003 13 284 1.6 6.4 0.00 0.00 0.00 56 1012.7
20260503034503 13 278 3.2 8.0 0.00 0.00 0.00 56 1012.8
20260503034003 13 260 3.2 9.7 0.00 0.00 0.00 56 1012.8
20260503033503 13 268 6.4 16.1 0.00 0.00 0.00 56 1012.9
20260503033003 13 269 6.4 16.1 0.00 0.00 0.00 57 1012.8
20260503032503 13 277 6.4 16.1 0.00 0.00 0.00 57 1012.7
20260503032003 13 273 6.4 14.5 0.00 0.00 0.00 58 1012.7
20260503031503 13 269 4.8 11.3 0.00 0.00 0.00 58 1012.8
20260503031003 13 254 6.4 14.5 0.00 0.00 0.00 58 1012.9
20260503030503 13 260 8.0 17.7 0.00 0.00 0.00 58 1013.0
20260503030003 13 253 4.8 16.1 0.00 0.00 0.00 58 1013.1
20260503025503 13 264 6.4 14.5 0.00 0.00 0.00 57 1013.2
20260503025003 13 264 4.8 9.7 0.00 0.00 0.00 57 1013.2
20260503024503 13 268 4.8 12.9 0.00 0.00 0.00 57 1013.3
20260503024003 13 260 3.2 9.7 0.00 0.00 0.00 57 1013.3
20260503023503 13 259 4.8 14.5 0.00 0.00 0.00 57 1013.3
20260503023003 13 265 6.4 14.5 0.00 0.00 0.00 58 1013.2
20260503022503 13 266 4.8 17.7 0.00 0.00 0.00 59 1013.2
20260503022003 13 271 3.2 9.7 0.00 0.00 0.00 59 1013.2
20260503021503 13 266 3.2 12.9 0.00 0.00 0.00 60 1013.3
20260503021003 13 271 3.2 9.7 0.00 0.00 0.00 61 1013.3
20260503020503 13 275 3.2 9.7 0.00 0.00 0.00 61 1013.5
20260503020003 13 276 3.2 9.7 0.00 0.00 0.00 61 1013.6
20260503015503 13 269 3.2 12.9 0.00 0.00 0.00 61 1013.6
20260503015003 13 289 1.6 8.0 0.00 0.00 0.00 60 1013.6
20260503014503 13 270 4.8 12.9 0.00 0.00 0.00 60 1013.7
20260503014003 13 271 3.2 9.7 0.00 0.00 0.00 60 1013.7
20260503013503 13 275 1.6 8.0 0.00 0.00 0.00 60 1013.7
20260503013003 13 283 1.6 8.0 0.00 0.00 0.00 60 1013.8
20260503012503 13 271 4.8 17.7 0.00 0.00 0.00 60 1013.8
20260503012003 13 269 4.8 16.1 0.00 0.00 0.00 60 1013.9
20260503011503 13 256 3.2 14.5 0.00 0.00 0.00 60 1013.9
20260503011003 13 274 4.8 16.1 0.00 0.00 0.00 60 1013.9
20260503010503 13 265 6.4 17.7 0.00 0.00 0.00 61 1013.8
20260503010003 13 267 6.4 20.9 0.00 0.00 0.00 61 1013.9
20260503005503 13 271 6.4 16.1 0.00 0.00 0.00 61 1013.9
20260503005003 13 275 8.0 20.9 0.00 0.00 0.00 61 1013.9
20260503004503 13 274 6.4 17.7 0.00 0.00 0.00 61 1014.1
20260503004003 13 281 8.0 17.7 0.00 0.00 0.00 62 1014.1
20260503003503 13 266 8.0 22.5 0.00 0.00 0.00 62 1014.0
20260503003003 13 275 6.4 16.1 0.00 0.00 0.00 62 1014.0
20260503002503 13 279 4.8 14.5 0.00 0.00 0.00 62 1014.0
20260503002003 13 272 6.4 14.5 0.00 0.00 0.00 62 1014.0
20260503001503 13 272 4.8 17.7 0.00 0.00 0.00 63 1013.9
20260503001003 13 273 4.8 14.5 0.00 0.00 0.00 63 1014.2
20260503000503 13 265 3.2 11.3 0.00 0.00 0.00 63 1014.1
20260503000003 13 274 6.4 14.5 0.00 0.00 0.00 63 1014.2
20260502235503 13 273 4.8 17.7 0.00 0.00 0.00 62 1014.1
20260502235003 13 264 4.8 16.1 0.00 0.00 0.00 61 1014.2
20260502234503 14 260 4.8 11.3 0.00 0.00 0.00 61 1014.3
20260502234003 13 270 4.8 17.7 0.00 0.00 0.00 61 1014.3
20260502233503 13 263 4.8 14.5 0.00 0.00 0.00 62 1014.3
20260502233003 13 259 4.8 20.9 0.00 0.00 0.00 61 1014.7
20260502232503 13 256 3.2 12.9 0.00 0.00 0.00 60 1014.7
20260502232003 13 273 3.2 16.1 0.00 0.00 0.00 60 1014.7
20260502231503 13 260 3.2 8.0 0.00 0.00 0.00 60 1015.0
20260502231003 13 268 1.6 9.7 0.00 0.00 0.00 60 1014.8
20260502230503 14 258 1.6 8.0 0.00 0.00 0.00 59 1015.1